Content
SEND FEEDBACK

Daily
Averages
Monthly
Summary
United States of America

SHASTA RETREAT, CALIFORNIA


Home > North America > United States > California
Elevation: 2954 feet     Latitude: 41 13N     Longitude: 122 16W

WEATHER
 
SELECT A DAY
Number of Records: 231,561;   Date Range: 1/1/95 - 9/16/14
 
SHARE

PRINT THIS DATA

[ ← Previous Day ]
WEATHER ALMANAC - JANUARY 12, 2014
[ Next Day → ]
[ °C ]   °F
Weather ElementAverageHighLow
Temperature33.1 °F41 °F (3:56 pm)27 °F (5:56 am)
Dewpoint25.9 °F30 °F (11:56 am)21 °F (5:56 am)
Humidity75.2 %85 % (7:56 pm)60 % (2:56 pm)
Barometer30.49 in30.63 in (11:56 pm)30.27 in (1:56 am)
Wind Speed1.7 mph5.8 mph (9:56 pm)
Weather ElementAverage
Visibility9.4 mi
Wind DirectionNE (41.3 °)

Weather ElementTotal
Precipitation---
Heating Degree Days31 (Base 65)
Averaged from 23 records on January 12, 2014
WEATHER CONDITIONS BREAKOUT
WIND DIRECTION BREAKOUT
WEATHER BY HOUR - JANUARY 12, 2014
[ °C ]   °F
Local TimeTemperatureDewpointHumidityBarometerVisibilityWind DirectionWind SpeedGust SpeedPrecipitationEventsConditions
1:56 AM28.0 °F23.0 °F81 %30.27 in10.0 miCalmClear
2:56 AM28.0 °F21.9 °F78 %30.30 in10.0 miVariable3.5 mphClear
3:56 AM30.0 °F24.1 °F79 %30.32 in10.0 miCalmClear
4:56 AM28.0 °F21.9 °F78 %30.35 in10.0 miCalmClear
5:56 AM27.0 °F21.0 °F78 %30.38 in10.0 miCalmClear
6:56 AM30.0 °F21.9 °F72 %30.39 in10.0 miVariable3.5 mphClear
7:56 AM27.0 °F21.0 °F78 %30.43 in10.0 miCalm
8:56 AM28.9 °F23.0 °F78 %30.47 in9.0 miCalmClear
9:56 AM35.1 °F27.0 °F72 %30.50 in10.0 miCalmOvercast
10:56 AM37.9 °F28.0 °F68 %30.51 in10.0 miCalmOvercast
11:56 AM37.9 °F30.0 °F73 %30.51 in10.0 miSSW (210°)3.5 mphOvercast
12:56 PM37.9 °F28.9 °F70 %30.50 in10.0 miCalmOvercast
1:56 PM39.0 °F28.9 °F67 %30.50 in10.0 miCalmOvercast
2:56 PM39.9 °F27.0 °F60 %30.51 in10.0 miCalmOvercast
3:56 PM41.0 °F30.0 °F65 %30.52 in10.0 miCalmOvercast
4:56 PM37.9 °F27.0 °F65 %30.55 in10.0 miVariable3.5 mphOvercast
5:56 PM36.0 °F27.0 °F70 %30.57 in10.0 miVariable3.5 mphMostly Cloudy
6:56 PM32.0 °F26.1 °F79 %30.58 in6.0 miNorth (360°)3.5 mphHaze
7:56 PM30.0 °F26.1 °F85 %30.62 in7.0 miNE (40°)3.5 mphScattered Clouds
8:56 PM30.9 °F26.1 °F82 %30.62 in10.0 miCalmClear
9:56 PM32.0 °F28.0 °F85 %30.62 in8.0 miNE (40°)5.8 mphPartly Cloudy
10:56 PM34.0 °F30.0 °F85 %30.62 in10.0 miWNW (300°)3.5 mphClear
11:56 PM33.1 °F28.0 °F82 %30.63 in7.0 miVariable4.6 mphScattered Clouds
Hourly data recorded from KMHS, located miles away from Shasta Retreat, California







STORIES FROM OUR PARTNERS